Regional Weather Roundup
Issued by NWS

Home | Current Version | Previous Version | Text Only | Print | Product List | Glossary Off
Versions: 1 2 3 4 5 6 7 8 9 10 11 12 13 14 15 16 17 18 19 20 21 22 23 24 25 26 27 28 29 30 31 32 33 34 35 36 37 38 39 40 41 42 43 44 45 46 47 48 49 50

000
ASUS43 KMKX 201021
RWRWI

WISCONSIN REGIONAL WEATHER ROUNDUP
NATIONAL WEATHER SERVICE MILWAUKEE/SULLIVAN WI
500 AM CDT FRI APR 20 2018

NOTE: "FAIR" INDICATES FEW OR NO CLOUDS BELOW 12,000 FEET WITH NO
SIGNIFICANT WEATHER AND/OR OBSTRUCTIONS TO VISIBILITY.

WIZ001-002-006>008-014>016-023>028-201100-
NORTHWEST WISCONSIN

CITY           SKY/WX    TMP DP  RH WIND       PRES   REMARKS
SUPERIOR ARPT  FAIR      32  20  61 SW8       30.44S WCI  24
ASHLAND        FAIR      35  18  49 SW8       30.44R WCI  29
HAYWARD        FAIR      20  17  88 N3        30.45S
SIREN          FAIR      26  21  82 CALM      30.47R
CUMBERLAND     FAIR      27  19  74 CALM      30.46R
RICE LAKE      FAIR      23  23  99 CALM      30.48S
CHETEK         FAIR      22  20  93 CALM      30.48R
LADYSMITH      FAIR      22  18  83 CALM      30.47S
EAU CLAIRE     FAIR      26  23  88 SW3       30.47S
MENOMONIE      FAIR      28  24  85 CALM      30.48S
NEW RICHMOND   FAIR      25  22  87 CALM      30.48S
OSCEOLA        FAIR      26  22  85 CALM      30.51S
$$

WIZ003>005-009-010-017-018-201100-
NORTH CENTRAL WISCONSIN

CITY           SKY/WX    TMP DP  RH WIND       PRES   REMARKS
MANITOWISH WTR FAIR      16  12  85 CALM      30.43S
ARBOR VITAE    FAIR      22  14  72 CALM      30.43S
WOODRUFF       FAIR      22  14  72 CALM      30.43S
RHINELANDER    FAIR      20  12  71 CALM      30.44R
EAGLE RIVER    FAIR      17  12  82 CALM      30.42F
LAND O LAKES   FAIR      13   9  85 CALM      30.44S
PHILLIPS       FAIR      17  16  94 CALM      30.45R
TOMAHAWK       FAIR      15  11  83 CALM      30.46R
MEDFORD        FAIR      24  18  77 CALM      30.45S
MERRILL          N/A     17  13  84 CALM      30.47R
$$

WIZ029-030-035-036-043>047-201100-
CENTRAL WISCONSIN

CITY           SKY/WX    TMP DP  RH WIND       PRES   REMARKS
WAUSAU         FAIR      24  21  88 CALM      30.44R
MOSINEE        FAIR      30  19  64 CALM      30.46S
MARSHFIELD     FAIR      28  16  60 NW6       30.45R WCI  22
STEVENS POINT  FAIR      19  18  98 CALM      30.47S
WAUPACA        FAIR      28  19  71 CALM      30.46S
WAUTOMA        FAIR      24  20  84 CALM      30.47
WISC RAPIDS    FAIR      22  17  81 CALM      30.48R
CAMP DOUGLAS   FAIR      20  19  96 CALM      30.47S
$$

WIZ011>013-019>022-031-037>040-048>050-201100-
NORTHEAST WISCONSIN

CITY           SKY/WX    TMP DP  RH WIND       PRES   REMARKS
ANTIGO         FAIR      18  16  89 CALM      30.45R
SHAWANO        FAIR      25  22  87 CALM      30.46S
OCONTO         FAIR      19  16  85 CALM      30.46R
STURGEON BAY   FAIR      28  16  60 CALM      30.46R
GREEN BAY      FAIR      24  20  84 W3        30.46R
MANITOWOC      FAIR      25  21  85 CALM      30.47R
APPLETON       FAIR      30  18  59 W5        30.44R WCI  25
CLINTONVILLE   FAIR      22  16  78 CALM      30.46S
OSHKOSH        FAIR      29  19  66 CALM      30.46R
$$

WIZ032>034-041-042-053>061-201100-
SOUTHWEST WISCONSIN

CITY           SKY/WX    TMP DP  RH WIND       PRES   REMARKS
LA CROSSE      FAIR      28  24  85 CALM      30.50R
SPARTA         FAIR      18  17  95 CALM      30.50S
VIROQUA        FAIR      31  23  73 CALM      30.47S
BOSCOBEL       FAIR      23  20  88 CALM      30.51S FOG
PRAIRIE DU CHI FAIR      25  22  89 CALM      30.51S
PLATTEVILLE    FAIR      31  27  84 CALM      30.49S
$$

WIZ056-057-062-063-064-067-068-201100-
SOUTH CENTRAL WISCONSIN

CITY           SKY/WX    TMP DP  RH WIND       PRES   REMARKS
REEDSBURG      FAIR      22  22 100 CALM      30.49S
BARABOO/DELLS  FAIR      22  19  88 CALM      30.48S
LONE ROCK      FAIR      23  21  92 CALM      30.50S
MINERAL POINT  FAIR      34  27  75 CALM      30.47S
MADISON        FAIR      23  21  92 CALM      30.48R
MIDDLETON      FAIR      28  24  86 CALM      30.49R
WATERTOWN      FAIR      22  22  97 CALM      30.47R
MONROE         FAIR      36  21  55 NW9       30.47S WCI  29
JANESVILLE     FAIR      28  28 100 CALM      30.48S
$$

WIZ051-052-058>065-066-070>072-201100-
SOUTHEAST WISCONSIN

CITY           SKY/WX    TMP DP  RH WIND       PRES   REMARKS
MILWAUKEE      FAIR      33  23  66 NW3       30.47R
WAUKESHA       FAIR      32  21  64 W3        30.47S
MILWAUKEE/TIMM FAIR      32  21  64 CALM      30.48R
RACINE         FAIR      34  24  67 NW5       30.48R WCI  30
BURLINGTON     FAIR      30  25  80 CALM      30.47R
KENOSHA        FAIR      35  23  61 NW6       30.47R WCI  30
FOND DU LAC    FAIR      24  18  77 CALM      30.47R
SHEBOYGAN      FAIR      26  23  88 CALM      30.46R
WEST BEND      FAIR      27  27 100 CALM      30.46R
JUNEAU         FAIR      27  23  84 CALM      30.47S
$$

LSZ147-162-201100-
LAKE SUPERIOR

STATION/POSITION TIME  TEMP    WIND        PRES    WAVE
                       AIR SEA DIR/SP/G            HT/PER
                 (UTC) (F)     (DEG/KT/KT) (MB)    (FT/S)
DEVILS ISLAND    1000   36     230/ 10/ 10 1031.1R
SAXON HARBOR     0940   29     190/  3/  5 1029.8R
$$

LMZ867-665-643>646-201100-
LAKE MICHIGAN

STATION/POSITION TIME  TEMP    WIND        PRES    WAVE
                       AIR SEA DIR/SP/G            HT/PER
                 (UTC) (F)     (DEG/KT/KT) (MB)    (FT/S)
NORTHPORT PIER   1001   30                 1030.8
KEWAUNEE LAKESHO 0954   27     290/  6/  7 1030.3R
SHEBOYGAN LAKESH 1000   37     280/  6/  7 1031.8R
PORT WASHINGTON  0930   37     300/  6/  8 1032.2R
MILWAUKEE LAKESH 1000   36     280/  4/  5   N/A
KENOSHA   LAKESH 1000   38                 1031.5
$$

TC  - TEMPERATURE IN CELSIUS
VSB - VISIBILITY IN STATUTE MILES
WCI - WIND CHILL INDEX
HX  - HEAT INDEX





USA.gov is the U.S. government's official web portal to all federal, state and local government web resources and services.